COSMOS 2501 (702K)

Last updated on June 24, 2019, 3:41 a.m. UTC

1 40315U 14075A   19173.95424558 -.00000027  00000-0  00000+0 0  9992
2 40315  64.0405 279.4902 0016376 204.7070 162.2351  2.13098714 35496
UTC
Height (km)
Latitude
Longitude
Inclination
Orbital Period
UTC large
Height (km)
Speed (km/s)
/
Latitude / Longitude
Inclination (degrees)
Orbital Period (minutes)
Azimuth
Elevation
Range (km)
Doppler Factor
iOS Compass Heading
iOS Angle

Next 30 passes for location: Hong Kong

Rise time Rise Azimuth (degrees) Set time Set Azimuth (degrees) Duration Max altitude (degrees)

No matching passes for this satellites